Mason, MI

2:19 PM EST on January 17, 2018 (GMT -0500)
Mason Jewett

Weather History for KTEW - October, 2013

Change the Weather History Date:

Thursday, October 10, 2013

  Actual Average (KLAN) Record (KLAN)
Temperature  
Mean Temperature 56 °F -  
Max Temperature 71 °F 61 °F 83 °F (1879)
Min Temperature 41 °F 39 °F 23 °F (1876)
Degree Days  
Heating Degree Days 9    
Growing Degree Days 6 (Base 50)    
Moisture  
Dew Point 43 °F    
Average Humidity 70    
Maximum Humidity 95    
Minimum Humidity 30    
Precipitation  
Precipitation 0.00 in - - ()
Sea Level Pressure  
Sea Level Pressure 30.19 in    
Wind  
Wind Speed 1 mph (SE)    
Max Wind Speed 6 mph    
Max Gust Speed -    
Visibility 8 miles    
Events Fog    
Averages and records for this station are not official NWS values.
T = Trace of Precipitation, MM = Missing Value Source: NWS Daily Summary

Daily Weather History Graph

Daily Weather History Graph

Search for Another Location

Airport or City:

Trip Planner

Search our weather history database for the weather conditions in past years. The results will help you decide how hot, cold, wet, or windy it might be!

Date:

Astronomy

Oct. 10, 2013 Rise Set
Actual Time 7:45 AM EDT 7:03 PM EDT
Civil Twilight 7:16 AM EDT 7:31 PM EDT
Nautical Twilight 6:44 AM EDT 8:04 PM EDT
Astronomical Twilight 6:11 AM EDT 8:36 PM EDT
Moon 1:40 PM EDT (10/10) 11:35 PM EDT (10/10)
Length of Visible Light 12h 14m
Length of Day
11h 18m
Waxing Crescent, 35% of the Moon is Illuminated
Oct 10
Waxing Crescent
Oct 11
First Quarter
Oct 18
Full
Oct 26
Last Quarter
Nov 3
New

Hourly Weather History & Observations

Time (EDT) Temp. Dew Point Humidity Pressure Visibility Wind Dir Wind Speed Gust Speed Precip Events Conditions
12:14 AM 45.5 °F 42.1 °F 88% 30.23 in 10.0 mi Calm Calm - N/A   Clear
12:34 AM 44.4 °F 41.0 °F 88% 30.23 in 10.0 mi Calm Calm - N/A   Clear
12:53 AM 43.7 °F 40.8 °F 90% 30.23 in 10.0 mi Calm Calm - N/A   Clear
1:13 AM 43.3 °F 40.8 °F 91% 30.22 in 10.0 mi Calm Calm - N/A   Clear
1:33 AM 43.7 °F 40.8 °F 90% 30.22 in 10.0 mi Calm Calm - N/A   Clear
1:53 AM 43.0 °F 40.5 °F 91% 30.22 in 10.0 mi Calm Calm - N/A   Clear
2:14 AM 43.9 °F 41.5 °F 91% 30.22 in 10.0 mi Calm Calm - N/A   Clear
2:33 AM 43.0 °F 40.5 °F 91% 30.22 in 10.0 mi Calm Calm - N/A   Clear
2:53 AM 43.2 °F 41.0 °F 92% 30.22 in 10.0 mi Calm Calm - N/A   Clear
3:13 AM 44.1 °F 41.7 °F 91% 30.22 in 10.0 mi Calm Calm - N/A   Clear
3:33 AM 44.6 °F 42.6 °F 93% 30.21 in 7.0 mi Calm Calm - N/A   Clear
3:53 AM 45.1 °F 43.2 °F 93% 30.21 in 5.0 mi Calm Calm - N/A   Clear
4:14 AM 41.7 °F 39.6 °F 92% 30.21 in 0.5 mi Calm Calm - N/A Fog Fog
4:33 AM 43.0 °F 41.2 °F 93% 30.21 in 5.0 mi Calm Calm - N/A   Clear
4:54 AM 44.4 °F 42.6 °F 93% 30.21 in 4.0 mi Calm Calm - N/A   Clear
5:14 AM 42.3 °F 40.5 °F 93% 30.21 in 5.0 mi Calm Calm - N/A   Clear
5:33 AM 43.9 °F 42.1 °F 93% 30.21 in 0.5 mi Calm Calm - N/A Fog Fog
5:54 AM 43.9 °F 42.1 °F 93% 30.22 in 0.2 mi Calm Calm - N/A Fog Fog
6:14 AM 45.0 °F 43.2 °F 93% 30.21 in 0.2 mi Calm Calm - N/A Fog Fog
6:33 AM 42.6 °F 40.8 °F 93% 30.21 in 0.2 mi Calm Calm - N/A Fog Fog
6:54 AM 41.4 °F 39.7 °F 94% 30.21 in - Calm Calm - N/A   Overcast
7:14 AM 41.7 °F 40.1 °F 94% 30.21 in 0.2 mi Calm Calm - N/A Fog Fog
7:33 AM 41.7 °F 40.1 °F 94% 30.22 in 0.2 mi Calm Calm - N/A Fog Fog
7:54 AM 43.9 °F 42.3 °F 94% 30.22 in 0.2 mi Calm Calm - N/A Fog Fog
8:13 AM 45.3 °F 43.7 °F 94% 30.22 in 0.2 mi Calm Calm - N/A Fog Fog
8:34 AM 46.4 °F 44.8 °F 94% 30.22 in 0.2 mi Calm Calm - N/A Fog Fog
8:54 AM 47.7 °F 46.0 °F 94% 30.23 in 0.2 mi Calm Calm - N/A Fog Fog
9:13 AM 48.6 °F 46.9 °F 94% 30.23 in 0.2 mi Calm Calm - N/A Fog Fog
9:34 AM 50.5 °F 48.9 °F 94% 30.23 in 0.2 mi Calm Calm - N/A Fog Fog
9:54 AM 52.7 °F 51.1 °F 94% 30.23 in 3.0 mi Calm Calm - N/A   Mostly Cloudy
10:13 AM 54.1 °F 52.7 °F 95% 30.22 in 10.0 mi SE 3.5 mph - N/A   Scattered Clouds
10:34 AM 55.6 °F 53.8 °F 94% 30.23 in 10.0 mi SSE 4.6 mph - N/A   Clear
10:54 AM 59.0 °F 52.0 °F 78% 30.23 in 10.0 mi SE 4.6 mph - N/A   Clear
11:13 AM 62.1 °F 48.7 °F 62% 30.23 in 10.0 mi ESE 5.8 mph - N/A   Clear
11:34 AM 64.0 °F 47.3 °F 54% 30.23 in 10.0 mi SE 3.5 mph - N/A   Clear
11:54 AM 64.9 °F 45.9 °F 50% 30.23 in 10.0 mi South 3.5 mph - N/A   Clear
12:13 PM 66.4 °F 44.8 °F 46% 30.23 in 10.0 mi East 3.5 mph - N/A   Clear
12:34 PM 66.6 °F 41.7 °F 40% 30.22 in 10.0 mi ESE 5.8 mph - N/A   Clear
12:53 PM 67.5 °F 41.7 °F 39% 30.21 in 10.0 mi SE 4.6 mph - N/A   Clear
1:14 PM 68.4 °F 42.1 °F 38% 30.21 in 10.0 mi East 4.6 mph - N/A   Clear
1:33 PM 68.9 °F 41.4 °F 37% 30.19 in 10.0 mi SSE 5.8 mph - N/A   Clear
1:53 PM 69.1 °F 41.4 °F 37% 30.19 in 10.0 mi SE 4.6 mph - N/A   Clear
2:14 PM 69.3 °F 39.9 °F 34% 30.18 in 10.0 mi South 4.6 mph - N/A   Clear
2:33 PM 70.0 °F 39.4 °F 33% 30.18 in 10.0 mi Calm Calm - N/A   Clear
2:54 PM 70.9 °F 39.0 °F 31% 30.17 in 10.0 mi SE 5.8 mph - N/A   Clear
3:14 PM 71.1 °F 38.1 °F 30% 30.17 in 10.0 mi Calm Calm - N/A   Clear
3:33 PM 71.1 °F 37.8 °F 30% 30.16 in 10.0 mi Calm Calm - N/A   Clear
3:54 PM 71.2 °F 39.7 °F 32% 30.16 in 10.0 mi Calm Calm - N/A   Clear
4:14 PM 71.2 °F 39.0 °F 31% 30.15 in 10.0 mi ESE 3.5 mph - N/A   Clear
4:33 PM 71.6 °F 39.4 °F 31% 30.14 in 10.0 mi ESE 3.5 mph - N/A   Clear
4:54 PM 71.4 °F 39.0 °F 31% 30.14 in 10.0 mi Calm Calm - N/A   Clear
5:13 PM 71.2 °F 39.2 °F 31% 30.14 in 10.0 mi ESE 4.6 mph - N/A   Clear
5:34 PM 71.1 °F 38.3 °F 30% 30.14 in 10.0 mi SE 3.5 mph - N/A   Clear
5:54 PM 70.7 °F 37.6 °F 30% 30.14 in 10.0 mi Calm Calm - N/A   Clear
6:13 PM 69.6 °F 38.3 °F 32% 30.14 in 10.0 mi Calm Calm - N/A   Clear
6:34 PM 67.6 °F 41.5 °F 39% 30.14 in 10.0 mi Calm Calm - N/A   Clear
6:54 PM 63.5 °F 45.1 °F 51% 30.13 in 10.0 mi ESE 3.5 mph - N/A   Clear
7:13 PM 61.0 °F 44.6 °F 55% 30.14 in 3.0 mi Calm Calm - N/A   Haze
7:34 PM 57.0 °F 46.0 °F 67% 30.14 in 4.0 mi Calm Calm - N/A   Haze
7:54 PM 54.3 °F 46.2 °F 74% 30.14 in 5.0 mi Calm Calm - N/A   Haze
8:13 PM 54.1 °F 46.9 °F 77% 30.14 in 7.0 mi Calm Calm - N/A   Clear
8:34 PM 52.0 °F 46.4 °F 81% 30.14 in 10.0 mi Calm Calm - N/A   Clear
8:53 PM 51.1 °F 45.5 °F 81% 30.13 in 10.0 mi Calm Calm - N/A   Clear
9:14 PM 52.9 °F 45.5 °F 76% 30.13 in 10.0 mi SSE 3.5 mph - N/A   Clear
9:33 PM 52.7 °F 44.6 °F 74% 30.13 in 10.0 mi Calm Calm - N/A   Clear
9:54 PM 52.0 °F 44.2 °F 75% 30.13 in 10.0 mi Calm Calm - N/A   Clear
10:14 PM 52.0 °F 43.7 °F 73% 30.14 in 10.0 mi SSE 3.5 mph - N/A   Clear
10:33 PM 52.2 °F 42.8 °F 70% 30.14 in 10.0 mi SSE 4.6 mph - N/A   Clear
10:54 PM 51.8 °F 42.8 °F 71% 30.14 in 10.0 mi SSE 3.5 mph - N/A   Clear
11:14 PM 49.5 °F 42.4 °F 77% 30.14 in 10.0 mi SE 3.5 mph - N/A   Clear
11:34 PM 49.6 °F 42.6 °F 77% 30.14 in 10.0 mi Calm Calm - N/A   Clear
11:54 PM 47.1 °F 42.3 °F 83% 30.14 in 10.0 mi Calm Calm - N/A   Clear